Showing default

KUIPER-00044, 64505

Orbit data source: Space-Track

KUIPER-00044, 64505 is a payload satellite owned by Kuiper Systems (US) in LEO that was launched on Mon, 23 Jun 2025 UTC via an ATLAS V 551 launch vehicle from the Air Force Eastern Test Range (AFETR). Payload-class satellites include a variety of spacecraft equipped with specific instruments for various scientific and technological missions. These include communications satellites like Starlink; space stations such as the ISS; scientific satellites like the Hubble; Earth observation satellites from companies like Planet Labs, Umbra, and HawkEye 360; GPS; miniature CubeSats for education and research; and military/defense satellites.

Loading next visibility...
Identifier
64505, 2025-134F
Orbit
LEO
Country
Flag of USUS
Related business
Manufacturer
Kuiper Systems
Mission
Operational Commercial Communications
Bus & Motor
KUIPER, Unknown motor
Mass
~490 kg wet, ~490 kg dry
Launch date (UTC)
2025-06-23 (1 year ago)
Launch vehicle
ATLAS V 551
Launch site
Air Force Eastern Test Range (AFETR)
Object type
Payload
Rocket body
Debris
Shape & HBR
Box + 2 Pan, 3.4 m
Radar Cross Section
2.326 m², Large (>1 m²)

Expand to show TLE details & history
Last TLE update: 21 hours ago

TLE from 21 hours ago
0 KUIPER-00044
1 64505U 25134F   26170.95825512  .00001866  00000-0  27370-3 0  9991
2 64505  51.8981 153.3240 0000553  73.7699 286.3324 14.79937001 55049
Epoch: 2026-06-19T22:59Z
TLE epoch observation values (Epoch: 2026-06-19T22:59:53.242Z)
Latitude
-0.00002°
Longitude
-99.82763°
Altitude
630.161 km
Speed
7.545 km/s
True Right ascension
10h 13m 17s
True Declination
0° 00' 00"
Sunlit
Object was in daylight at epoch
Visualization orbit readout
Latitude
Unknown
Longitude
Unknown
Altitude
Unknown
Speed
Unknown
Apparent Right ascension
Unknown
Apparent Declination
Unknown
Sunlit
N/A
Visualization observer readout
Local Sidereal Time
07:15:30
Azimuth
Unknown
Elevation
Unknown
Doppler factor
Unknown
Orbital elements
Apogee altitude
630.362 km
Perigee altitude
629.587 km
Semi-major axis
7,008.111 km
Eccentricity
0.00006
Inclination
51.8981°
RAAN
153.324°
Arg. of periapsis
73.7699°
True anomaly
286.32632°
Mean anomaly
286.3324°
Eccentric anomaly
286.32936°
Mean motion
3.69949 °/min
Orbital period
97.31 mins
BSTAR
0.0002737
Loading maneuver chart data...
Computing Atmospheric mass density...
Loading historical data...
Loading historical data...
Loading historical data...
Loading historical data...
Loading historical data...
Loading historical data...
Loading historical data...

Documentation

Showing up to 5 results
|